Showing default

ALSAT 1B, 41785

Orbit data source: Space-Track

ALSAT 1B, 41785 is a payload satellite owned by ASAL (DZ) in SSO that was launched on Mon, 26 Sep 2016 UTC via a PSLV launch vehicle from the Sirharikota (SRI). Payload-class satellites include a variety of spacecraft equipped with specific instruments for various scientific and technological missions. These include communications satellites like Starlink; space stations such as the ISS; scientific satellites like the Hubble; Earth observation satellites from companies like Planet Labs, Umbra, and HawkEye 360; GPS; miniature CubeSats for education and research; and military/defense satellites.

Loading next visibility...
Identifier
41785, 2016-059C
Orbit
SSO
Country
Flag of DZDZ / ALG
Related business
Manufacturer
SSTL (Astrium)
Mission
Operational Civil Imaging
Bus & Motor
SSTL-100, Unknown motor
Mass
103 kg wet, 103 kg dry
Launch date (UTC)
2016-09-26 (9 years ago)
Launch vehicle
PSLV
Launch site
Sirharikota (SRI)
Object type
Payload
Rocket body
Debris
Shape & HBR
Box + 1 Ant, 3.3 m
Radar Cross Section
0.862 m², Medium (>0.1 m² and < 1m²)

Expand to show TLE details & history
Last TLE update: 5 hours ago

TLE from 5 hours ago
0 ALSAT 1B
1 41785U 16059C   25288.95901657  .00000764  00000-0  12929-3 0  9996
2 41785  97.7857 303.2303 0008011 295.6191  64.4189 14.71975499484641
Epoch: 2025-10-15T23:00Z
TLE epoch observation values (Epoch: 2025-10-15T23:00:59.031Z)
Latitude
-0.00001°
Longitude
-66.74128°
Altitude
655.353 km
Speed
7.531 km/s
True Right ascension
20h 12m 55s
True Declination
0° 00' 00"
Sunlit
Object was in daylight at epoch
Visualization orbit readout
Latitude
Unknown
Longitude
Unknown
Altitude
Unknown
Speed
Unknown
Apparent Right ascension
Unknown
Apparent Declination
Unknown
Sunlit
N/A
Visualization observer readout
Local Sidereal Time
22:27:43
Azimuth
Unknown
Elevation
Unknown
Doppler factor
Unknown
Orbital elements
Apogee altitude
657.447 km
Perigee altitude
646.183 km
Semi-major axis
7,029.952 km
Eccentricity
0.0008
Inclination
97.7857°
RAAN
303.2303°
Arg. of periapsis
295.6191°
True anomaly
64.50174°
Mean anomaly
64.4189°
Eccentric anomaly
64.46031°
Mean motion
3.68226 °/min
Orbital period
97.77 mins
BSTAR
0.00012929
Loading maneuver chart data...
Computing Atmospheric mass density...
Loading historical data...
Loading historical data...
Loading historical data...
Loading historical data...
Loading historical data...
Loading historical data...
Loading historical data...

Documentation

Showing up to 5 results
|